Regional Weather Roundup
Issued by NWS

Home | Current Version | Previous Version | Graphics & Text | Print | Product List | Glossary On
Versions: 1 2 3 4 5 6 7 8 9 10 11 12 13 14 15 16 17 18 19 20 21 22 23 24 25 26 27 28 29 30 31 32 33 34 35 36 37 38 39 40 41 42 43 44 45 46 47 48 49 50
000
ASUS43 KOAX 231010
RWRNE

WEATHER ROUNDUP FOR NEBRASKA
NATIONAL WEATHER SERVICE OMAHA NE
400 AM CST FRI FEB 23 2018

NOTES: SATELLITE DATA IS BEING USED TO AUGMENT CLOUD COVER ABOVE
       12000 FEET.
       "FAIR" INDICATES FEW OR NO CLOUDS BELOW 12,000 FEET WITH NO
       SIGNIFICANT WEATHER AND/OR OBSTRUCTIONS TO VISIBILITY.


NEZ001>004-019>022-054>056-231100-
NEBRASKA PANHANDLE

CITY           SKY/WX    TMP DP  RH WIND       PRES   REMARKS
SCOTTSBLUFF    CLOUDY    11   8  88 NW8       30.08F WCI  -1
ALLIANCE       PTCLDY    -3  -6  87 SW3       30.08F
CHADRON        PTCLDY    -5 -10  79 W6        30.15S WCI -18
GORDON         FAIR       2  -2  82 W5        30.10S WCI  -7
KIMBALL        CLEAR      9   5  85 W6        30.03F WCI  -1
SIDNEY         PTCLDY    14  11  87 NW5       30.06S FOG     WCI   6
$$

NEZ057>060-069>072-079>082-231100-
SOUTHWEST NEBRASKA

CITY           SKY/WX    TMP DP  RH WIND       PRES   REMARKS
NORTH PLATTE   MOCLDY     8   3  80 W5        30.14F HAZE    WCI   0
IMPERIAL       MOCLDY    19  16  88 CALM      30.11F
LEXINGTON      CLEAR      9   6  87 CALM      30.17R
MCCOOK         CLOUDY    19  18  95 SW8       30.18R FOG     WCI   9
OGALLALA       PTCLDY    15  13  89 CALM      30.11F
$$

NEZ005>010-023>029-035>040-094-231100-
NORTH CENTRAL NEBRASKA

CITY           SKY/WX    TMP DP  RH WIND       PRES   REMARKS
VALENTINE      CLOUDY    18  14  84 W12       30.14S WCI   5
AINSWORTH      CLOUDY    17  17  97 NW7       30.15R WCI   8
BROKEN BOW     CLEAR     12   8  84 CALM      30.14R
O`NEILL        CLOUDY    19  19 100 NW10G16   30.15R WCI   7
ORD            PTCLDY    13  11  92 W5        30.15S WCI   5
THEDFORD         N/A      9   6  88 W3        30.14R
$$

NEZ041-046>049-061>064-073>077-083>087-231100-
SOUTH CENTRAL NEBRASKA

CITY           SKY/WX    TMP DP  RH WIND       PRES   REMARKS
GRAND ISLAND   CLEAR     20  16  84 W8        30.18S WCI  10
AURORA         CLEAR     17  15  93 W8        30.18S WCI   6
HASTINGS       CLEAR     19  16  88 W9        30.18F WCI   8
HEBRON         CLOUDY    28  25  87 NW6       30.22S WCI  21
HOLDREGE       CLEAR     19  18  96 W8        30.17S WCI   9
KEARNEY        CLEAR     17  15  92 W5        30.18R WCI  10
YORK           CLEAR     21  21 100 W9        30.19S WCI  11
$$

NEZ011>018-030>034-042>045-231100-
NORTHEAST NEBRASKA

CITY           SKY/WX    TMP DP  RH WIND       PRES   REMARKS
NORFOLK        CLOUDY    17  15  92 W8        30.14F WCI   7
ALBION         CLOUDY    17  14  90 CALM      30.16F
BLAIR          PTCLDY    26  25  94 W5        30.17S FOG     WCI  21
COLUMBUS       CLEAR     16  14  92 W6        30.19S FOG     WCI   7
FREMONT        CLEAR     22  22  98 SW5       30.19S FOG     WCI  16
TEKAMAH        CLEAR     22  20  92 W9        30.19R WCI  12
WAYNE          CLOUDY    12  11  96 S3        30.17R
$$

NEZ050>053-065>068-078-088>093-231100-
SOUTHEAST NEBRASKA

CITY           SKY/WX    TMP DP  RH WIND       PRES   REMARKS
LINCOLN        PTCLDY    26  24  92 W5        30.21F WCI  20
OMAHA EPPLEY   CLOUDY    29  25  85 W9        30.19R WCI  20
BEATRICE       PTCLDY    27  26  96 W6        30.20S WCI  20
FALLS CITY     CLOUDY    32  32 100 W9        30.19F WCI  24
NEBRASKA CITY  CLOUDY    31  31 100 NW6       30.19S WCI  25
PLATTSMOUTH    CLOUDY    28  27  94 W7        30.18S WCI  21
$$

NEZ044-045-051>053-067-231100-
OMAHA AREA

CITY           SKY/WX    TMP DP  RH WIND       PRES   REMARKS
OMAHA EPPLEY   CLOUDY    29  25  85 W9        30.19R WCI  20
BLAIR          PTCLDY    26  25  94 W5        30.17S FOG     WCI  21
FREMONT        CLEAR     22  22  98 SW5       30.19S FOG     WCI  16
MILLARD        PTCLDY    29  26  88 W6        30.20R WCI  23
OFFUTT AFB     MOCLDY    29  26  88 W7        30.18R WCI  21
PLATTSMOUTH    CLOUDY    28  27  94 W7        30.18S WCI  21
WAHOO          FAIR      23  21  93 W7        30.19S FOG     WCI  15
$$




USA.gov is the U.S. government's official web portal to all federal, state and local government web resources and services.